Location: ?????????
(55.7500°N, 38.2000°E)
Time: 05:29:16
(UTC+00:00)

Daily predictions for brighter satellites

Satellite Brightness Start Highest point End
(mag) Time Altitude Azimuth Time Altitude Azimuth Time Altitude Azimuth
Cosmos 2369 Rocket 4.1 00:17:55 25° NE 00:17:55 25° NE 00:21:56 10° E
ADEOS Rocket 4.0 00:15:25 10° NNE 00:21:57 49° E 00:21:57 49° E
ADEOS II 4.4 00:17:38 10° NNE 00:19:01 18° NNE 00:19:01 18° NNE
Cosmos 2360 Rocket 4.1 00:29:09 24° NNE 00:29:09 24° NNE 00:31:24 10° NNE
Cosmos 2322 Rocket 4.0 00:34:12 25° NNE 00:34:12 25° NNE 00:36:33 10° NNE
Cosmos 2333 Rocket 4.0 00:35:28 25° NNE 00:35:28 25° NNE 00:37:56 10° NNE
SJ 16-02 4.3 00:38:25 11° ESE 00:38:25 11° ESE 00:38:41 10° ESE
USA 234 3.9 00:30:33 10° ESE 00:35:07 49° ESE 00:35:07 49° ESE
CZ-2D R/B 4.3 00:35:29 10° NNE 00:36:47 18° NNE 00:36:47 18° NNE
ACS3 Solar Sail 2.6 00:35:29 10° NNE 00:39:55 45° NE 00:39:55 45° NE
SL-16 R/B 4.0 00:44:51 23° NNE 00:44:51 23° NNE 00:47:14 10° NNE
COSMOS 2455 4.1 00:46:06 36° NNE 00:46:06 36° NNE 00:49:43 10° NE
Resurs 1-4 Rocket 4.2 00:47:51 10° NNE 00:49:16 19° N 00:49:16 19° N
Cosmos 1725 Rocket 4.4 00:52:18 10° N 00:58:34 59° ENE 01:04:48 10° SSE
Cosmos 2219 Rocket 3.4 01:03:00 35° NNE 01:03:00 35° NNE 01:06:19 10° NNE
NOSS 3-1 (C) 3.9 01:03:05 49° ENE 01:03:05 49° ENE 01:07:43 10° NE
Cosmos 1727 Rocket 4.3 01:07:36 61° NNE 01:07:36 61° NNE 01:12:43 10° NNE
Lacrosse 4 Rocket 4.0 01:11:04 16° NE 01:11:04 16° NE 01:12:40 10° ENE
NOSS 3-2 (C) 4.3 01:11:41 44° N 01:12:11 45° N 01:19:25 10° ENE
Lacrosse 5 rocket 4.1 01:16:10 12° E 01:16:10 12° E 01:16:31 10° E
H-2A R/B 3.6 01:14:30 10° NNE 01:16:39 26° NNE 01:16:39 26° NNE
Cosmos 1802 Rocket 4.2 01:13:34 10° N 01:21:19 58° SSE 01:26:15 10° SSE
NOSS 0 Rocket 4.2 01:20:16 57° SSE 01:21:00 61° ESE 01:27:04 10° NE
Cosmos 1000 Rocket 4.4 01:28:40 81° S 01:29:02 89° ESE 01:35:25 10° NNE
NOSS 3-2 (A) 4.2 01:31:49 44° NNW 01:33:41 57° NNE 01:41:35 10° E
COSMOS 2428 2.7 01:39:07 72° N 01:39:07 72° N 01:44:21 10° NNE
Cosmos 1980 Rocket 4.1 01:38:37 17° N 01:39:01 18° N 01:42:46 10° NE
Meteor 2-5 Rocket 3.9 01:37:02 39° S 01:39:17 73° E 01:45:03 10° NNE
Cosmos 2322 3.8 01:40:26 63° N 01:40:26 63° N 01:45:26 10° NNE
USA 267 4.3 01:34:26 10° ENE 01:40:28 38° SE 01:44:05 22° S
CZ-2C R/B 2.8 01:35:55 10° NNE 01:40:58 65° ESE 01:42:21 46° SSE
Cosmos 1980 4.0 01:40:45 48° S 01:42:09 64° ESE 01:47:46 10° NE
Cosmos 2123 Rocket 3.9 01:39:49 30° S 01:43:03 82° E 01:49:17 10° NNE
Cosmos 2016 Rocket 3.9 01:37:20 10° NNW 01:43:46 82° W 01:50:06 10° S
Cosmos 1939 Rocket 4.0 01:46:50 10° NNE 01:50:31 41° E 01:51:19 36° SE
NOSS 3-1 (A) 3.2 01:50:03 59° S 01:50:47 67° SE 01:56:51 10° NE
Meteor 2-21 4.2 01:50:58 70° W 01:51:13 71° WNW 01:57:17 10° N
Cosmos 2084 4.3 01:52:25 42° NE 01:52:25 42° NE 01:55:51 10° E
Cosmos 1190 Rocket 4.4 01:54:10 51° S 01:54:10 51° S 01:58:07 10° SSE
Cosmos 676 Rocket 3.9 01:54:25 64° NNW 01:55:16 85° ENE 02:00:28 10° SSE
Cosmos 2297 4.0 01:54:05 35° NNW 01:56:28 64° NE 02:02:04 10° SE
CENTAUR R/B 3.2 01:52:52 38° NW 01:56:29 86° NE 02:05:44 10° SE
ARGOS 3.0 01:51:58 10° NNE 01:57:27 86° WNW 01:58:54 51° SSW
Cosmos 2237 Rocket 2.3 01:55:42 42° SSW 01:57:37 74° ESE 02:03:17 10° NE
ADEOS II 3.6 01:57:35 10° N 01:59:50 22° NNW 01:59:50 22° NNW
Cosmos 2369 Rocket 2.4 01:59:43 34° NNW 02:02:13 70° NE 02:07:55 10° SE
USA 238 DEB 4.3 02:03:31 36° NW 02:05:40 46° N 02:12:48 10° ENE
USA 238 4.3 02:03:37 36° NW 02:05:46 46° N 02:12:54 10° ENE
Cosmos 1954 Rocket 3.9 02:07:31 65° SW 02:07:31 65° SW 02:12:23 10° SSE
ADEOS Rocket 3.5 02:01:06 10° N 02:07:30 51° WNW 02:08:51 46° W
Cosmos 2360 Rocket 3.5 02:10:54 25° NNW 02:10:54 25° NNW 02:15:23 10° NNE
Meteor 2-16 Rocket 4.3 02:05:47 11° SSW 02:11:46 78° WNW 02:17:57 10° N
SJ 16-02 2.1 02:15:02 38° S 02:15:02 38° S 02:17:49 10° S
Cosmos 2322 Rocket 3.6 02:15:59 23° NNW 02:16:06 23° NNW 02:20:39 10° NNE
IRS-1D 4.4 02:11:20 10° NNE 02:16:08 47° E 02:20:53 10° S
Cosmos 2333 Rocket 3.6 02:17:29 22° NNW 02:17:53 23° NNW 02:22:24 10° NNE
SKYMED 2 3.6 02:13:44 10° SSE 02:18:04 78° ENE 02:21:03 20° NNW
CZ-2D R/B 3.9 02:16:16 10° N 02:18:02 17° NNW 02:18:02 17° NNW
USA 234 3.5 02:14:15 10° SE 02:20:35 49° SW 02:22:27 39° W
NOSS 2-2 (E) 3.7 02:23:27 44° N 02:23:53 47° NNE 02:28:00 10° ESE
ACS3 Solar Sail 2.3 02:18:45 10° N 02:24:02 37° WNW 02:24:02 37° WNW
SeaSat 1 4.1 02:21:03 10° NNE 02:24:16 19° NNW 02:24:16 19° NNW
COSMO-SKYMED 1 2.7 02:21:00 10° SSE 02:25:05 67° ENE 02:28:38 14° N
USA 59 Rocket 0.9 02:28:26 24° NNE 02:28:26 24° NNE 02:29:59 10° NE
SL-16 R/B 3.8 02:26:41 18° NNW 02:27:38 19° NNW 02:31:39 10° NNE
Cosmos 968 Rocket 3.5 02:25:09 23° NNW 02:28:31 82° ENE 02:33:47 10° SSE
Cosmos 1741 Rocket 4.3 02:26:44 18° NNW 02:30:48 69° ENE 02:36:06 10° SE
COSMOS 2455 3.9 02:29:14 27° NW 02:30:49 30° NNW 02:36:07 10° NE
Resurs 1-4 Rocket 4.0 02:28:41 10° N 02:30:19 15° NNW 02:30:19 15° NNW
Cosmos 371 Rocket 3.4 02:32:57 48° W 02:33:16 49° WSW 02:37:55 10° S
Cosmos 1461 4.4 02:32:54 21° N 02:33:30 22° N 02:36:38 10° NE
Cosmos 2061 Rocket 4.0 02:29:17 10° NNW 02:35:20 56° W 02:41:21 10° SSW
Cosmos 1891 Rocket 4.5 02:29:27 10° NNW 02:35:53 90° WNW 02:42:08 10° S
CZ-4 R/B 4.3 02:33:19 10° NNE 02:38:11 63° ESE 02:42:55 10° S
Aureole 3 Rocket 3.6 02:35:02 10° NNW 02:39:45 79° W 02:46:23 10° S
Cosmos 2292 Rocket 4.3 02:35:23 13° SSW 02:40:10 59° WNW 02:46:50 10° N
Cosmos 1656 Rocket 4.0 02:38:46 37° WNW 02:40:20 45° WSW 02:45:42 10° S
Cosmos 304 Rocket 4.1 02:41:42 41° WSW 02:41:49 41° WSW 02:46:16 10° S
Gbstr 26 Del rocket 3.8 02:39:59 35° WSW 02:41:58 58° S 02:47:57 10° ESE
Meteor 1-24 Rocket 4.0 02:41:06 35° WSW 02:42:33 42° WNW 02:47:43 10° N
Cosmos 2219 Rocket 3.4 02:44:42 23° NW 02:45:41 24° NNW 02:50:17 10° NNE
Cosmos 2233 Rocket 4.2 02:40:16 10° NNW 02:46:12 44° W 02:52:04 10° SSW
Cosmos 1400 Rocket 2.5 02:44:17 20° NNW 02:46:48 85° ENE 02:50:28 10° SSE
Lacrosse 4 Rocket 2.2 02:46:35 23° NNW 02:48:42 44° NE 02:52:29 10° ESE
Cosmos 2151 Rocket 3.6 02:44:44 10° N 02:49:16 81° ENE 02:53:44 10° SSE
Cosmos 1484 Rocket 4.5 02:46:48 10° NNE 02:50:03 32° E 02:53:15 10° SSE
Lacrosse 5 rocket 0.8 02:49:50 58° WSW 02:50:13 64° SSW 02:53:31 10° ESE
In-Cosmos 22 Rocket 4.4 02:45:33 10° S 02:51:22 79° ESE 02:57:10 10° NNE
USA 306 3.6 02:50:32 25° SSW 02:51:53 36° SSE 02:55:27 10° E
NOSS 3-1 (C) 3.6 02:50:25 32° WNW 02:52:42 50° NNW 02:59:12 10° ENE
NOSS 2-2 (C) 3.3 02:53:25 42° WNW 02:54:34 70° SW 02:59:17 10° SE
Sich 1 Rocket 4.0 02:51:46 10° N 02:56:19 66° ENE 03:00:48 10° SSE
Cosmos 1447 Rocket 4.4 02:50:19 10° SSW 02:56:37 78° WNW 03:02:59 10° N
H-2A R/B 3.5 02:54:42 10° N 02:57:08 18° NW 02:57:08 18° NW
Cosmos 1464 Rocket 4.0 02:51:59 10° N 02:58:12 86° E 03:04:20 10° S
H-2A R/B 3.8 02:55:31 10° N 02:58:58 36° WNW 02:58:58 36° WNW
PAYLOAD A 4.4 02:55:42 10° N 03:00:48 43° WNW 03:05:40 10° SW
SL-16 R/B 2.5 02:55:16 10° SSW 03:00:55 70° ESE 03:06:36 10° NE
SWARM C 4.4 02:58:32 10° S 03:01:51 88° W 03:05:12 10° N
SWARM A 4.3 02:58:39 10° S 03:01:58 80° E 03:05:18 10° N
Cosmos 332 Rocket 3.7 02:58:13 16° NNW 03:02:04 80° WSW 03:06:50 10° SSE
Cosmos 1624 Rocket 3.9 02:57:01 10° SSW 03:02:12 83° WNW 03:07:26 10° NNE
Cosmos 1420 Rocket 4.1 02:57:42 14° SW 03:02:12 58° NW 03:07:28 10° NNE
NOSS 3-2 (C) 4.1 02:59:05 20° NW 03:04:04 69° NNE 03:12:17 10° ESE
SL-08 RB Rocket 4.3 03:00:27 10° N 03:04:34 34° WNW 03:06:14 26° WSW
Helios 1A Rocket 2.9 03:02:05 10° S 03:05:14 37° W 03:05:20 37° W
Cosmos 1378 Rocket 3.5 03:00:59 10° S 03:05:16 82° E 03:09:35 10° NNE
Cosmos 2242 Rocket 3.5 03:02:33 10° SSW 03:06:56 68° WNW 03:11:23 10° N
Okean 1 Rocket 3.1 03:03:01 10° N 03:07:22 80° ENE 03:11:41 10° SSE
NOSS 0 Rocket 4.3 03:04:17 23° W 03:07:44 44° NW 03:13:38 10° NNE
Cosmos 2346 Rocket 4.4 03:03:13 10° SSW 03:09:16 63° WNW 03:15:20 10° N
Cosmos 2034 Rocket 4.3 03:03:12 10° N 03:09:34 75° ENE 03:15:56 10° SSE
Cosmos 1812 4.0 03:14:35 16° SW 03:14:35 16° SW 03:15:24 10° SSW
Meteor 2-1 Rocket 4.4 03:07:09 10° NNW 03:13:08 84° ENE 03:18:58 10° SSE
NOSS 2-2 (D) 3.2 03:14:49 27° WNW 03:16:44 77° SW 03:21:23 10° SE
NOSS 2-1 (E) 3.9 03:16:18 25° NW 03:16:49 26° NNW 03:19:28 10° NE
CZ-2C R/B 3.3 03:14:26 10° N 03:18:42 28° WNW 03:21:33 17° WSW
Cosmos 1850 Rocket 4.0 03:14:13 13° NW 03:18:43 56° WSW 03:23:45 10° S
PKM 4.3 03:19:13 20° W 03:22:48 57° SSW 03:25:40 10° SE
COSMOS 2428 3.7 03:21:07 20° WNW 03:23:44 28° NNW 03:28:35 10° NNE
USA 267 3.4 03:17:31 10° ENE 03:24:06 78° SSE 03:30:40 10° WSW
Cosmos 1939 Rocket 3.7 03:21:04 10° N 03:24:21 27° WNW 03:26:12 18° WSW
NOSS 3-2 (A) 4.0 03:19:10 16° NW 03:24:58 73° SW 03:33:27 10° SE
Cosmos 1980 Rocket 4.0 03:20:48 10° NNW 03:25:09 22° NNE 03:29:28 10° ENE
Cosmos 1980 4.2 03:22:38 17° W 03:26:33 38° NW 03:31:52 10° NNE
USA 229 DEB 4.0 03:20:50 10° SSW 03:26:47 63° SE 03:33:34 10° NE
USA 229 4.1 03:21:03 10° SSW 03:27:00 62° SE 03:33:46 10° NE
IGS 5A 4.1 03:23:55 10° NNE 03:27:54 58° E 03:31:52 10° S
Cosmos 1072 Rocket 4.5 03:24:01 10° NNW 03:30:00 58° W 03:36:01 10° S
Cosmos 2084 3.4 03:28:09 20° WNW 03:30:46 57° SW 03:34:42 10° SE
Cosmos 1331 Rocket 4.3 03:27:13 10° SSW 03:32:27 74° ESE 03:37:40 10° NNE
Meteor 1-11 4.3 03:29:17 10° SSW 03:35:09 89° ESE 03:41:01 10° NNE
ARGOS 4.3 03:32:57 10° N 03:37:01 22° NW 03:40:21 13° W
Cosmos 1356 Rocket 4.4 03:33:09 10° N 03:37:06 47° ENE 03:41:04 10° SE
Cosmos 2297 4.4 03:36:01 13° NW 03:40:19 32° WSW 03:45:15 10° S
CBERS-1 4.3 03:35:44 10° NNE 03:40:53 76° ESE 03:46:00 10° SSW
NOSS 3-1 (A) 3.6 03:37:27 14° W 03:41:51 51° NNW 03:48:23 10° ENE
SMAP 4.1 03:37:32 10° NNE 03:42:06 50° E 03:46:38 10° S
Cosmos 2237 Rocket 2.9 03:37:34 12° W 03:42:11 34° NW 03:47:20 10° NNE
Cosmos 1441 Rocket 4.2 03:40:25 10° S 03:43:36 43° E 03:46:49 10° NNE
Okean 2 Rocket 3.4 03:40:37 10° NNW 03:44:44 42° W 03:48:51 10° SSW
Cosmos 2369 Rocket 3.1 03:41:31 12° NW 03:45:51 29° WSW 03:50:42 10° SSW
CENTAUR R/B 3.8 03:40:00 12° WNW 03:46:57 42° WSW 03:55:27 10° S
ATLAS 3B R/B 3.2 03:40:42 10° SW 03:48:22 81° SE 03:56:19 10° NE
NOSS 2-1 (D) 4.3 03:49:19 14° NW 03:50:58 21° N 03:53:24 10° NE
Cosmos 2056 Rocket 3.9 03:46:04 10° WSW 03:51:11 42° NW 03:56:19 10° NNE
Cosmos 1943 3.7 03:46:21 10° SSW 03:51:54 66° ESE 03:57:28 10° NE
NOSS 2-1 (C) 4.3 03:52:10 13° NW 03:53:56 21° N 03:56:21 10° NE
IRS-1D 4.0 03:50:42 10° N 03:55:11 35° WNW 03:59:38 10° SW
Orbus 7S? 2.7 03:51:40 10° WSW 03:55:36 90° NW 03:58:15 10° ENE
Cosmos 2360 Rocket 4.0 03:53:02 10° NW 03:56:44 17° N 04:00:25 10° NE
USA 238 DEB 4.2 03:50:56 11° NW 03:57:44 62° NNE 04:05:26 10° ESE
USA 238 4.2 03:51:02 11° NW 03:57:50 62° NNE 04:05:32 10° ESE
Cosmos 1315 Rocket 2.9 03:54:16 10° NNW 03:58:08 74° ENE 04:01:59 10° SSE
SeaSat 1 4.5 03:58:14 10° NNE 04:00:26 13° N 04:02:38 10° NNW
COSMO-SKYMED 1 3.9 03:57:56 10° SW 04:00:51 18° W 04:03:46 10° NW
Iridium 45 4.3 03:57:42 10° NNW 04:00:51 57° W 04:03:58 10° S
Cosmos 2228 3.3 03:57:01 10° N 04:01:17 72° ENE 04:05:31 10° SSE
Cosmos 292 Rocket 4.0 03:57:20 10° NW 04:02:00 50° WSW 04:06:36 10° S
Cosmos 2322 Rocket 4.0 03:58:29 10° NW 04:02:14 18° N 04:06:00 10° NE
NOSS 2-3 (C) 4.3 03:58:35 10° NW 04:03:03 62° NNE 04:09:06 10° ESE
Cosmos 2333 Rocket 4.0 04:00:19 10° NW 04:04:19 19° N 04:08:19 10° NE
Cosmos 1544 Rocket 4.5 04:00:10 10° N 04:04:29 51° ENE 04:08:48 10° SSE
ACS3 Solar Sail 3.5 04:03:42 10° NNW 04:05:36 12° NW 04:07:31 10° WNW
Cosmos 1025 Rocket 3.3 04:06:10 10° SSW 04:10:23 48° WNW 04:14:39 10° N
NOSS 2-3 (E) 4.2 04:05:59 10° NW 04:10:35 72° NE 04:16:46 10° ESE
Cosmos 1461 3.8 04:07:32 10° NW 04:11:16 36° NNE 04:14:56 10° E
NOSS 2-2 (E) 4.2 04:09:51 10° WNW 04:13:18 38° SW 04:17:49 10° SSE
SL-16 R/B 4.0 04:09:54 10° NNW 04:13:54 19° NNE 04:17:54 10° ENE
MOS 1 Rocket 4.4 04:09:08 10° NNE 04:13:56 55° E 04:18:57 10° S
Cosmos 1674 Rocket 4.2 04:11:16 10° SW 04:15:20 35° WNW 04:19:25 10° N
USA 59 Rocket 0.9 04:14:24 10° NW 04:16:43 20° N 04:19:10 10° NE
COSMOS 2455 4.0 04:13:05 10° NW 04:18:24 31° NNE 04:23:43 10° ENE
Cosmos 1697 Rocket 3.5 04:13:44 10° NNW 04:19:10 47° NE 04:24:37 10° ESE
USA 306 2.9 04:16:46 10° WSW 04:20:17 66° S 04:24:17 10° E
Tsikada Rocket 4.1 04:16:32 10° SSW 04:22:54 80° WNW 04:29:22 10° N
Cosmos 1484 Rocket 3.4 04:19:49 10° N 04:22:56 29° WNW 04:26:02 10° SW
Cosmos 2221 Rocket 4.1 04:20:47 10° SW 04:25:05 41° WNW 04:29:24 10° N
Thor Agena Rocket 3.6 04:20:06 10° NNE 04:25:19 70° WNW 04:30:27 10° SSW
Cosmos 1110 Rocket 4.3 04:21:50 10° SW 04:26:59 50° NW 04:32:10 10° NNE
